Regional Weather Roundup
Issued by NWS

Home | Current Version | Previous Version | Graphics & Text | Print | Product List | Glossary On
Versions: 1 2 3 4 5 6 7 8 9 10 11 12 13 14 15 16 17 18 19 20 21 22 23 24 25 26 27 28
000
ASUS45 KPSR 180010
RWRAZ

ARIZONA HOURLY REGIONAL WEATHER ROUNDUP
NATIONAL WEATHER SERVICE PHOENIX AZ
500 PM MST TUE JAN 17 2017

NOTE: FAIR INDICATES FEW OR NO CLOUDS BELOW 12,000 FEET WITH NO
SIGNIFICANT WEATHER AND/OR OBSTRUCTIONS TO VISIBILITY.

AZZ001>003-036-180100-
NORTHWEST ARIZONA

CITY           SKY/WX    TMP DP  RH WIND       PRES   REMARKS
BULLHEAD CITY  CLEAR     61  19  20 N18       30.08S
KINGMAN        CLEAR     52  18  26 MISG      30.09S
6HR MIN TEMP:  44; 6HR MAX TEMP:  53;

$$

AZZ004>008-015-016-018-180100-
NORTH CENTRAL ARIZONA

CITY           SKY/WX    TMP DP  RH WIND       PRES   REMARKS
GRAND CANYON   CLEAR     39  27  62 NE12      30.14R WCI  32
6HR MIN TEMP:  36; 6HR MAX TEMP:  43;

WILLIAMS       CLOUDY    41  30  65 NW7       30.11R
PRESCOTT       PTCLDY    49  26  41 E6        30.09S
6HR MIN TEMP:  42; 6HR MAX TEMP:  51;

FLAGSTAFF      CLOUDY    37  27  67 CALM      30.12R
6HR MIN TEMP:  32; 6HR MAX TEMP:  39;

PAYSON         CLOUDY    48  32  53 NE5       30.12R
PAGE           CLEAR     47  22  37 NE3       30.14S
6HR MIN TEMP:  40; 6HR MAX TEMP:  48;

$$

AZZ009>014-017-180100-
NORTHEAST ARIZONA

CITY           SKY/WX    TMP DP  RH WIND       PRES   REMARKS
WINSLOW        PTCLDY    47  34  60 N7        30.11S
6HR MIN TEMP:  42; 6HR MAX TEMP:  48;

SAINT JOHNS    CLOUDY    45  31  58 W9        30.08S
6HR MIN TEMP:  40; 6HR MAX TEMP:  49;

SHOW LOW       MOCLDY    37  32  81 SE7       30.12R WCI  32
$$

AZZ023-180100-
GREATER PHOENIX AREA

CITY           SKY/WX    TMP DP  RH WIND       PRES   REMARKS
PHOENIX        PTCLDY    63  41  44 W6        30.02S
6HR MIN TEMP:  54; 6HR MAX TEMP:  63;

BUCKEYE        PTCLDY    63  41  45 SW3       30.05S
GLENDALE       PTCLDY    64  43  45 CALM      30.05S
LUKE AFB       PTCLDY    63  38  39 SW6       30.02S
6HR MIN TEMP:  54; 6HR MAX TEMP:  64;

DEER VALLEY    CLEAR     63  37  38 W3        30.02S
6HR MIN TEMP:  54; 6HR MAX TEMP:  64;

SCOTTSDALE     CLEAR     63  38  39 W5        30.03F
6HR MIN TEMP:  54; 6HR MAX TEMP:  63;

MESA-FALCON    PTCLDY   N/A N/A N/A W7        30.00S
MESA-GATEWAY   PTCLDY    61  43  51 W6        30.04R
CHANDLER       PTCLDY    63  41  45 CALM      30.03S
$$

AZZ027-028-180100-
SOUTHWEST MARICOPA COUNTY AND PINAL COUNTY

CITY           SKY/WX    TMP DP  RH WIND       PRES   REMARKS
CASA GRANDE    MOCLDY    60  41  49 NW7       30.04S
6HR MIN TEMP:  52; 6HR MAX TEMP:  61;

$$

AZZ503-504-507>509-180100-
SOUTHEAST ARIZONA

CITY           SKY/WX    TMP DP  RH WIND       PRES   REMARKS
TUCSON         CLEAR     61  41  47 NW9       30.03S
6HR MIN TEMP:  52; 6HR MAX TEMP:  64;

DAVIS-MONTHAN  PTCLDY    59  42  53 NW12      30.03R
6HR MIN TEMP:  53; 6HR MAX TEMP:  62;

RYAN FIELD     CLEAR     61  43  51 NW9       30.05R
NOGALES        CLOUDY    53  36  52 SE5       30.05R
6HR MIN TEMP:  44; 6HR MAX TEMP:  60; 6HR PCP: TRACE;

SIERRA VISTA   CLOUDY    53  31  43 SW12      30.06R
6HR MIN TEMP:  48; 6HR MAX TEMP:  58;

DOUGLAS        FAIR      54  35  48 S3        30.05R
6HR MIN TEMP:  45; 6HR MAX TEMP:  58;

SAFFORD        PTCLDY    57  40  52 W8        30.03R
6HR MIN TEMP:  47; 6HR MAX TEMP:  60;

$$

AZZ020-021-025-026-031-180100-
SOUTHWEST ARIZONA

CITY           SKY/WX    TMP DP  RH WIND       PRES   REMARKS
YUMA           CLEAR     66  29  24 N8        30.05S
6HR MIN TEMP:  59; 6HR MAX TEMP:  67;

$$

CAZ031-033-041-043-047-048-061-180100-
SOUTHERN CALIFORNIA

CITY           SKY/WX    TMP DP  RH WIND       PRES   REMARKS
DOWNTOWN L.A.  SUNNY     63  44  50 W8        30.07F
6HR MIN TEMP:  60; 6HR MAX TEMP:  68;

L.A. AIRPORT   MOSUNNY   60  51  72 W9        30.08F
6HR MIN TEMP:  58; 6HR MAX TEMP:  65;

SAN DIEGO      MOSUNNY   62  45  53 NW13G20   30.11R
6HR MIN TEMP:  59; 6HR MAX TEMP:  66;

BURBANK        SUNNY     62  39  42 S10       30.06F
6HR MIN TEMP:  56; 6HR MAX TEMP:  66;

ONTARIO        MOSUNNY   62  37  39 W6        30.08R
6HR MIN TEMP:  56; 6HR MAX TEMP:  65;

RIVERSIDE      SUNNY     65  37  35 W8        30.08R
6HR MIN TEMP:  50; 6HR MAX TEMP:  68;

PALM SPRINGS   SUNNY     69  25  19 VRB3      30.08R
6HR MIN TEMP:  62; 6HR MAX TEMP:  70;

EL CENTRO NAS  MOSUNNY   67  23  19 CALM      30.09R
6HR MIN TEMP:  58; 6HR MAX TEMP:  69;

IMPERIAL       SUNNY     66  30  26 CALM      30.06S
6HR MIN TEMP:  57; 6HR MAX TEMP:  68;

BLYTHE         CLEAR     65  24  21 N7        30.07S
6HR MIN TEMP:  53; 6HR MAX TEMP:  66;

NEEDLES        CLEAR     63  22  20 N14       30.08S
6HR MIN TEMP:  57; 6HR MAX TEMP:  64;

$$

NVZ020-UTZ003-180100-
SOUTHERN NEVADA-UTAH

CITY           SKY/WX    TMP DP  RH WIND       PRES   REMARKS
LAS VEGAS      CLEAR     56  14  19 CALM      30.12R
6HR MIN TEMP:  48; 6HR MAX TEMP:  56;

SALT LAKE CITY PTCLDY    29  20  69 NW7       30.23F HAZE    WCI  22
6HR MIN TEMP:  26; 6HR MAX TEMP:  32;

$$

NMZ009-TXZ055-180100-
NEW MEXICO-WEST TEXAS

CITY           SKY/WX    TMP DP  RH WIND       PRES   REMARKS
ALBUQUERQUE    CLOUDY    47  34  60 W8        30.09S
6HR MIN TEMP:  44; 6HR MAX TEMP:  49;

EL PASO        MOCLDY    48  38  68 N13       30.08R
6HR MIN TEMP:  48; 6HR MAX TEMP:  53; 6HR PCP:  0.01;

$$


........................KEY........................
SKY/WX - SKY CONDITION/WEATHER
TMP    - TEMPERATURE IN FAHRENHEIT
DP     - DEW POINT IN FAHRENHEIT
RH     - RELATIVE HUMIDITY IN PERCENT
WIND   - DIRECTION AND SPEED IN MILES PER HOUR (MPH)
VRB    - VARIABLE WIND DIRECTION
PRES   - MEAN SEA LEVEL PRESSURE IN INCHES OF MERCURY
         F - FALLING PRESSURE   R - RISING PRESSURE
         S - STEADY PRESSURE
VSB    - VISIBILITY IN MILES
HX     - HEAT INDEX IN FAHRENHEIT
WCI    - WIND CHILL INDEX IN FAHRENHEIT
TC     - TEMPERATURE IN CELSIUS WHICH IS ALSO KNOWN AS
         TEMPERATURE IN CENTIGRADE
AFB    - AIR FORCE BASE
         LUKE AFB IS LUKE AIR FORCE BASE
         DAVIS-MONTHAN IS DAVIS-MONTHAN AIR FORCE BASE
NAS    - NAVAL AIR STATION
         EL CENTRO NAS IS EL CENTRO NAVAL AIR STATION
N/A    - NOT AVAILABLE





USA.gov is the U.S. government's official web portal to all federal, state and local government web resources and services.